Regional Weather Roundup
Issued by NWS

Home | Current Version | Previous Version | Text Only | Print | Product List | Glossary On
Versions: 1 2 3 4 5 6 7 8 9 10 11 12 13 14 15 16 17 18 19 20 21 22 23 24 25 26 27 28 29 30 31 32 33 34 35 36 37 38 39 40 41 42 43 44 45 46 47 48 49 50
000
ASUS43 KLOT 270804
RWRIL

ILLINOIS REGIONAL WEATHER ROUNDUP
NATIONAL WEATHER SERVICE CHICAGO/ROMEOVILLE IL
300 AM CDT TUE JUN 27 2017

NOTE: "FAIR" INDICATES FEW OR NO CLOUDS BELOW 12,000 FEET WITH NO
SIGNIFICANT WEATHER AND/OR OBSTRUCTIONS TO VISIBILITY.

* THESE STATIONS ARE NOT UNDER NWS QUALITY CONTROL. THEY ALSO MAY NOT
  REPORT WEATHER SUCH AS PRECIPITATION OR FOG.

ILZ001-002-007-009-015-016-024-270900-
NORTHWEST ILLINOIS

CITY           SKY/WX    TMP DP  RH WIND       PRES   REMARKS
MOLINE         CLEAR     49  45  86 CALM      30.13S
STERLING*      CLEAR     51  48  89 CALM      30.13S
SAVANNA*       PTCLDY    48  47  97 CALM      30.13S
$$

ILZ003-004-008-010-011-017-018-270900-
NORTH CENTRAL ILLINOIS

CITY           SKY/WX    TMP DP  RH WIND       PRES   REMARKS
ROCKFORD       CLEAR     50  46  86 S3        30.14S
FREEPORT*      PTCLDY    50  44  80 W5        30.14R
ROCHELLE*      PTCLDY    47  45  92 W3        30.12S
DE KALB*       CLEAR     52  45  76 W5        30.12S
PERU*          PTCLDY    51  45  77 W3        30.13S
$$

ILZ005-006-012>014-019>023-270900-
NORTHEAST ILLINOIS

CITY           SKY/WX    TMP DP  RH WIND       PRES   REMARKS
CHICAGO-OHARE  CLEAR     53  46  77 W5        30.10R
CHICAGO-MIDWAY CLEAR     56  46  69 W5        30.10R
AURORA         CLEAR     48  45  89 W5        30.12S
LANSING*       CLEAR     53  44  72 W3        30.11R
JOLIET*        CLEAR     50  48  93 CALM      30.12R
WAUKEGAN       CLEAR     52  48  86 VRB3      30.09S
DUPAGE AIRPORT CLEAR     52  46  80 CALM      30.10S
WHEELING       CLEAR     54  48  80 CALM      30.11S
MORRIS*        CLEAR     50  44  80 NW5       30.11R
ROMEOVILLE*    CLEAR     53  44  72 W6        30.11S
NORTHERLY ISL    N/A     59  45  59 CALM        N/A
$$

LMZ740>746-270900-
SOUTHERN LAKE MICHIGAN

STATION/POSITION SKY/WX   TEMP    WIND        PRES    VSBY  WAVE
                          AIR SEA DIR/SP/G                  HT/PER
                          (F)     (DEG/KT/KT) (MB)    (MI)  (FT/S)
SOUTHERN BUOY              58 61  340/ 10/ 12 1018.5          3/ 5
WILMETTE HARBOR            59 62  300/  8/ 10   N/A           2/ 5
HARRISON CRIB              60     310/  9/  9   N/A
BURNHAM HARBOR             59                   N/A
CALUMET HARBOR             57     260/  2/  3 1018.5F
BURNS HARBOR               62     330/  9/ 13 1019.0F
MICHIGAN CITY              60     320/ 15/ 18   N/A
MICHIGAN CITY 6N           60 65  340/ 12/ 17   N/A           4/ 5
ST. JOSEPH                 60 68  350/ 12/ 17 1018.7S         4/ 5
$$

ILZ025>027-034>036-040-047-049-050-058-095>099-270900-
WEST-CENTRAL ILLINOIS

CITY           SKY/WX    TMP DP  RH WIND       PRES   REMARKS
QUINCY         PTCLDY    56  54  93 N5        30.14R
GALESBURG*     CLEAR     48  48 100 CALM      30.15S
MACOMB*        CLEAR     47  47  97 CALM      30.17R
JACKSONVILLE*  PTCLDY    52  49  91 CALM      30.14R
PITTSFIELD*    CLEAR     56  54  94 CALM      30.15R
$$

ILZ028>032-037-038-041>044-048-051>054-059>061-270900-
CENTRAL ILLINOIS

CITY           SKY/WX    TMP DP  RH WIND       PRES   REMARKS
PONTIAC        CLEAR     52  51  98 CALM      30.13S
BLOOMINGTON    PTCLDY    55  49  80 N5        30.14S
DECATUR        CLEAR     57  51  80 NW5       30.13S
PEORIA         CLEAR     51  50  96 CALM      30.13S
LACON*         PTCLDY    48  48  99 CALM      30.12F
LINCOLN*       FOG       52  52 100 CALM      30.14S VSB 1/2
SPRINGFIELD    CLEAR     54  52  93 CALM      30.14R
TAYLORVILLE    PTCLDY    51  50  95 CALM      30.14R
$$

ILZ033-039-045-046-055>057-062-063-270900-
EAST-CENTRAL ILLINOIS

CITY           SKY/WX    TMP DP  RH WIND       PRES   REMARKS
CHAMPAIGN      PTCLDY    50  47  89 NW5       30.13R
RANTOUL*       CLEAR     53  51  96 CALM      30.13R
MATTOON        CLEAR     53  52  96 NW6       30.12R
PARIS*         CLEAR     50  49  96 CALM      30.13S
$$

ILZ079-100>102-270900-
SOUTHWEST ILLINOIS

CITY           SKY/WX    TMP DP  RH WIND       PRES   REMARKS
ALTON          CLEAR     51  51 100 CALM      30.14S
BELLEVILLE     CLEAR     55  52  89 CALM      30.14R
CAHOKIA*       CLEAR     57  53  86 W3        30.13S
SPARTA*        CLEAR     56  53  91 CALM      30.14S
$$

ILZ064>066-069>071-074>076-080>082-084>086-088>090-092>094-270900-
SOUTH-CENTRAL ILLINOIS

CITY           SKY/WX    TMP DP  RH WIND       PRES   REMARKS
CARBONDALE     CLEAR     58  58 100 NW5       30.12R
CAIRO*         CLOUDY    64  59  83 CALM      30.12R
EFFINGHAM*     CLEAR     53  53 100 CALM      30.14S
MARION         CLEAR     55  55 100 CALM      30.13R
MT. VERNON     CLEAR     52  51  97 CALM      30.13R FOG
CENTRALIA*     CLEAR     52  52  97 CALM      30.12S
SALEM*         CLEAR     55  52  92 CALM      30.13S
METROPOLIS*    CLOUDY    63  59  88 CALM      30.12R
$$

ILZ067-068-072-073-078-083-087-091-270900-
SOUTHEAST ILLINOIS

CITY           SKY/WX    TMP DP  RH WIND       PRES   REMARKS
LAWRENCEVILLE  CLEAR     56  54  93 CALM      30.12S
FLORA*         CLEAR     54  51  89 CALM      30.13S
FAIRFIELD*     CLEAR     53  52  96 CALM      30.12S
HARRISBURG*    CLEAR     56  53  92 CALM      30.12S
ROBINSON*      CLEAR     50  49  99 CALM      30.14R
CARMI*         CLEAR     56  55  98 N3        30.12R
$$

ABBREVIATIONS USED IN REMARKS
   TC - TEMPERATURE IN CELSIUS
  WCI - WIND CHILL INDEX
   HX - HEAT INDEX
  VSB - VISIBILITY
$$




USA.gov is the U.S. government's official web portal to all federal, state and local government web resources and services.